Wind_Speed
47 47 48 48 48 49 49 49 50 50 50 50 51 51 52 54 55 56 57 57 56 55 53 52 51 50 50 50 50 50 51 53 54 55 55 53 56 63 69 73 75 74
49 49 49 49 49 49 49 50 50 50 50 51 51 52 54 55 57 58 59 60 59 58 56 55 53 51 51 51 50 51 52 53 54 54 56 56 57 60 65 69 72 76
51 50 50 50 50 50 50 50 50 50 51 51 52 53 55 57 59 60 61 62 62 61 59 57 55 53 52 51 51 50 51 53 54 54 56 58 59 60 63 66 70 74
52 52 52 52 52 51 51 51 51 51 51 52 53 54 56 59 60 62 63 64 64 63 62 60 58 55 54 52 51 50 50 52 53 55 56 58 59 61 63 66 69 73
53 53 53 52 53 52 52 52 52 52 52 52 53 54 57 60 62 64 64 65 65 65 64 62 60 58 56 54 51 50 50 51 52 53 55 58 60 61 63 66 70 74
54 54 53 53 53 53 53 53 53 53 52 53 54 55 58 61 63 65 66 66 66 66 65 64 63 61 58 56 53 51 50 50 51 52 54 58 61 62 64 66 70 73
55 54 54 53 54 54 54 54 54 53 53 54 55 57 59 62 64 66 67 67 67 67 66 66 65 63 61 58 56 53 51 50 49 50 52 56 60 63 64 66 69 73
56 55 55 54 54 54 55 54 54 53 54 55 57 59 61 63 65 67 67 67 67 67 67 66 66 65 63 61 59 56 53 51 49 48 50 53 58 62 65 66 69 72
56 56 56 55 55 55 55 55 54 54 55 57 59 61 63 65 66 67 67 67 67 67 67 66 66 65 64 63 61 58 55 52 50 48 48 51 55 60 64 66 68 72
57 57 57 56 56 56 56 55 55 55 57 59 62 64 65 66 67 67 67 67 68 67 67 67 66 65 64 63 62 60 57 54 52 48 46 48 52 57 62 66 68 70
57 57 57 57 57 57 57 56 56 57 59 61 64 66 66 67 67 67 68 68 68 68 68 67 66 65 65 64 62 60 58 56 53 48 45 45 48 53 59 64 67 70
58 58 57 57 57 57 57 57 58 59 61 63 65 67 68 68 68 68 68 69 69 69 69 69 67 66 66 66 64 61 59 56 53 49 45 43 45 49 55 61 65 69
59 58 57 57 57 58 58 58 59 61 63 65 67 68 69 70 70 70 70 71 71 70 70 70 69 67 67 67 65 62 58 55 53 50 45 42 41 44 50 57 62 68
59 58 58 57 58 58 59 59 61 63 65 67 69 70 71 72 72 73 73 74 74 73 72 71 70 69 69 68 66 62 58 54 51 49 45 41 40 42 47 53 60 65
60 59 58 58 58 59 59 61 62 64 67 69 71 72 73 74 75 76 77 77 76 75 73 72 71 71 70 70 67 63 58 53 48 46 44 41 40 41 44 50 56 62
60 60 59 59 59 60 61 62 64 66 69 71 72 74 76 77 79 79 80 80 79 77 75 73 72 72 71 70 66 61 57 52 46 43 42 41 40 40 42 46 52 58
61 61 60 60 60 61 63 64 66 68 70 72 74 76 79 80 81 82 82 82 82 80 77 74 73 72 72 69 64 59 54 49 44 41 40 40 40 39 39 43 47 53
62 62 61 61 61 63 64 67 68 70 71 74 76 79 81 82 83 83 84 84 83 81 78 75 73 72 71 67 60 55 51 46 41 38 38 39 39 37 38 40 43 48
62 62 62 62 63 64 66 68 69 71 73 76 78 81 83 84 84 84 85 86 85 82 80 77 74 72 69 63 57 52 47 42 38 36 36 38 38 37 36 37 40 44
63 62 62 63 64 65 67 68 70 72 74 77 80 82 84 85 86 86 87 87 86 83 80 77 74 71 66 59 53 49 44 38 34 34 35 36 37 35 33 34 37 40
63 63 63 64 65 66 67 69 71 73 75 79 82 84 85 87 88 88 88 88 87 84 80 76 73 69 62 55 50 46 40 35 32 33 34 35 34 32 30 32 35 37
64 64 64 65 66 67 68 70 72 74 77 80 83 85 86 88 89 89 89 89 88 84 79 74 70 65 58 51 47 43 37 32 31 32 32 32 30 28 28 30 32 35
65 64 64 65 66 68 69 71 74 76 79 82 85 86 87 88 89 89 89 89 88 84 79 73 68 61 54 48 44 40 34 30 30 31 31 30 28 26 25 26 29 32
65 65 65 66 68 70 71 73 76 79 81 84 87 89 89 90 89 89 89 89 88 85 80 72 65 58 51 45 42 37 31 29 29 31 31 29 27 25 23 23 25 29
65 65 66 68 70 72 73 76 79 81 83 86 89 90 91 91 90 89 87 86 84 82 78 70 61 54 47 42 38 34 30 28 29 30 30 28 27 25 23 22 22 24
66 67 68 70 72 74 76 78 81 83 85 87 90 91 91 91 90 88 85 82 78 75 71 65 57 50 44 39 35 32 30 28 29 30 30 28 27 27 25 23 21 21
Wind_Direction
303 302 301 300 300 299 299 299 299 300 300 301 302 303 304 305 306 307 307 307 306 305 304 302 299 297 294 291 287 283 279 274 271 268 263 255 248 244 242 241 240 239
302 301 300 300 299 299 299 299 299 300 301 301 302 303 305 306 307 308 308 307 307 306 305 303 301 299 296 294 290 286 281 276 272 267 263 258 252 246 243 240 239 239
302 301 300 300 300 300 300 300 301 301 302 302 303 304 306 307 308 308 308 307 307 306 305 304 302 300 298 296 292 288 283 279 275 269 263 258 254 248 244 240 237 236
301 301 301 301 302 302 303 303 303 303 303 303 304 305 306 308 308 308 308 307 307 306 306 304 303 301 299 297 294 290 286 282 277 272 265 258 253 249 244 240 237 236
302 302 302 302 303 304 304 305 304 304 304 304 304 305 307 308 308 308 307 307 307 307 306 305 304 302 301 299 296 293 289 286 280 274 266 260 254 249 244 240 237 236
303 303 303 304 304 305 305 305 305 304 304 304 305 306 307 308 308 307 307 307 307 307 307 306 305 303 302 301 298 295 292 289 284 276 267 260 255 250 245 240 236 235
305 305 304 305 305 305 305 305 305 305 304 305 306 307 308 308 308 308 307 307 308 308 307 307 306 305 304 303 301 298 295 292 287 279 268 260 255 251 246 241 237 235
306 306 305 305 306 306 305 305 305 305 305 306 307 308 308 308 308 308 308 308 308 308 307 307 307 306 306 305 303 301 298 295 290 282 270 259 254 250 247 242 238 235
307 306 306 306 306 306 305 305 305 306 306 307 308 308 309 309 309 308 308 308 308 308 308 307 307 307 307 306 305 303 301 298 293 285 272 260 253 249 246 243 238 235
307 306 306 306 306 306 305 305 305 306 307 308 308 309 310 310 310 309 309 309 309 309 309 308 308 308 308 307 305 304 302 299 295 287 276 263 254 248 245 242 239 235
307 306 306 306 306 305 305 305 306 306 307 308 309 309 310 310 310 310 310 310 310 310 310 310 309 309 309 308 306 305 304 301 296 289 279 266 256 249 244 241 239 236
306 306 306 306 306 305 305 305 306 306 307 308 309 309 310 310 310 310 311 311 312 312 312 312 311 311 310 309 307 306 304 301 297 290 280 268 258 251 246 241 238 236
306 306 306 306 305 304 304 305 305 306 306 307 309 310 310 310 311 312 313 313 313 313 314 313 313 313 312 311 309 307 304 301 296 290 281 271 261 253 247 242 238 236
306 306 306 305 304 303 303 304 304 305 306 307 309 310 311 312 313 314 314 315 315 315 315 315 315 314 314 312 310 307 304 300 295 289 281 272 262 254 247 242 238 235
306 306 305 303 302 302 303 303 304 305 306 308 309 311 313 314 315 315 316 316 315 315 316 316 316 315 315 314 311 307 303 299 294 287 280 273 264 256 249 243 239 235
305 304 303 302 302 302 302 302 304 305 306 308 311 313 315 316 316 316 316 316 316 316 316 316 316 316 315 314 310 306 302 298 292 285 278 272 265 257 250 244 240 236
304 303 302 302 302 302 302 303 304 305 307 310 313 315 316 316 316 316 316 316 316 315 316 317 317 316 315 312 308 304 300 296 290 283 276 271 264 258 251 245 240 237
303 302 302 302 302 302 303 304 305 307 310 313 315 315 315 315 316 316 316 317 316 316 316 317 317 316 315 311 306 302 298 294 288 280 274 269 264 257 251 246 241 236
303 302 302 302 303 303 303 304 306 309 312 314 315 315 315 315 316 316 317 317 316 316 317 318 317 317 314 309 304 301 297 291 284 277 271 266 262 256 250 246 242 237
303 303 303 303 303 303 304 305 307 310 312 313 314 314 315 315 316 316 316 316 316 316 317 318 318 316 312 307 303 299 295 288 280 273 267 262 259 255 250 246 242 238
304 303 303 303 303 303 305 307 309 311 312 313 313 314 315 315 315 316 316 316 316 316 317 318 317 315 310 306 302 298 293 285 275 268 262 258 255 253 250 247 243 239
303 303 302 302 303 304 306 308 310 311 312 313 313 314 314 315 315 316 316 316 316 316 317 318 317 313 309 305 301 296 290 280 270 263 257 252 249 248 248 247 244 240
303 302 302 302 304 305 307 309 310 311 312 313 313 313 314 314 315 316 317 316 315 316 317 319 317 312 308 305 300 294 286 275 264 257 251 245 241 240 242 244 244 241
302 302 303 304 306 307 308 309 311 311 312 313 313 313 314 315 315 316 317 316 315 315 316 317 316 311 307 304 298 291 281 269 259 251 245 238 232 231 232 236 241 242
303 304 305 306 307 307 309 310 311 311 312 313 313 313 314 315 315 316 316 315 314 313 313 314 314 310 306 302 295 287 276 264 252 245 239 230 223 221 221 223 232 240
304 305 306 306 307 308 309 310 310 311 312 312 312 313 314 314 315 315 314 313 311 310 310 311 311 308 304 299 291 281 271 258 245 238 232 222 214 212 213 215 221 231
Height
10876 10873 10871 10868 10865 10863 10860 10857 10855 10852 10850 10847 10844 10841 10838 10836 10833 10831 10828 10827 10825 10824 10822 10821 10819 10817 10814 10812 10810 10808 10806 10805 10805 10806 10809 10812 10813 10812 10814 10818 10822 10826
10870 10868 10865 10862 10860 10857 10855 10852 10849 10847 10844 10841 10838 10835 10832 10829 10826 10823 10820 10818 10816 10815 10813 10811 10810 10808 10805 10803 10801 10798 10796 10794 10795 10796 10797 10798 10800 10801 10802 10806 10811 10814
10863 10861 10858 10855 10853 10851 10848 10845 10843 10840 10837 10834 10831 10828 10824 10821 10819 10816 10813 10810 10807 10806 10804 10802 10800 10799 10797 10794 10791 10789 10786 10783 10782 10784 10785 10785 10787 10789 10790 10794 10798 10801
10857 10854 10851 10848 10846 10843 10840 10838 10835 10833 10830 10827 10824 10821 10818 10815 10812 10808 10805 10802 10798 10796 10794 10792 10790 10789 10787 10785 10782 10779 10776 10774 10771 10771 10772 10773 10774 10776 10778 10782 10785 10788
10850 10848 10845 10842 10839 10836 10833 10830 10828 10826 10823 10821 10818 10815 10812 10808 10805 10801 10798 10794 10790 10787 10784 10782 10780 10778 10777 10775 10773 10770 10767 10764 10761 10759 10759 10759 10761 10764 10765 10769 10772 10775
10844 10841 10839 10836 10833 10829 10826 10824 10821 10819 10816 10814 10811 10809 10806 10803 10799 10794 10790 10787 10783 10779 10775 10772 10769 10767 10766 10764 10762 10760 10757 10754 10751 10749 10747 10746 10748 10751 10753 10756 10759 10763
10837 10835 10832 10830 10826 10823 10820 10818 10815 10812 10809 10807 10805 10802 10800 10796 10792 10787 10783 10779 10776 10771 10767 10763 10759 10756 10755 10753 10750 10748 10746 10744 10741 10738 10735 10734 10734 10737 10741 10744 10747 10751
10830 10828 10825 10823 10820 10817 10814 10811 10808 10805 10803 10800 10798 10796 10793 10789 10785 10780 10776 10772 10768 10764 10760 10755 10751 10747 10744 10742 10738 10736 10735 10733 10730 10727 10724 10723 10722 10724 10728 10732 10736 10739
10824 10821 10818 10816 10813 10811 10808 10805 10801 10799 10796 10793 10790 10788 10786 10782 10778 10773 10769 10765 10761 10757 10752 10748 10743 10739 10735 10731 10727 10725 10723 10721 10718 10716 10713 10712 10711 10712 10715 10720 10724 10728
10817 10814 10811 10809 10806 10804 10801 10798 10795 10792 10789 10786 10783 10780 10778 10775 10771 10766 10762 10757 10753 10749 10744 10740 10736 10731 10727 10722 10717 10714 10711 10709 10706 10705 10703 10701 10700 10701 10704 10708 10713 10717
10810 10807 10805 10802 10799 10796 10793 10790 10788 10785 10782 10780 10776 10773 10770 10767 10763 10759 10754 10749 10745 10740 10735 10731 10727 10722 10717 10712 10708 10704 10700 10697 10695 10693 10692 10691 10690 10691 10693 10697 10702 10707
10804 10801 10799 10796 10792 10789 10786 10783 10781 10778 10776 10773 10770 10766 10762 10759 10755 10751 10746 10741 10736 10731 10726 10721 10717 10712 10707 10701 10697 10694 10690 10687 10684 10682 10682 10681 10681 10682 10684 10687 10692 10696
10798 10795 10793 10790 10786 10782 10779 10777 10774 10771 10768 10766 10762 10758 10754 10750 10746 10741 10736 10731 10727 10722 10717 10711 10707 10702 10697 10691 10686 10684 10680 10677 10674 10672 10671 10672 10672 10673 10674 10678 10682 10686
10791 10789 10786 10783 10779 10776 10773 10770 10767 10764 10761 10757 10754 10749 10744 10740 10735 10731 10726 10721 10716 10712 10707 10702 10697 10692 10686 10681 10676 10672 10670 10667 10665 10662 10661 10662 10663 10664 10665 10668 10671 10676
10785 10782 10779 10776 10773 10770 10766 10763 10760 10757 10753 10749 10744 10739 10734 10729 10724 10720 10715 10710 10705 10701 10697 10692 10687 10681 10676 10671 10665 10661 10659 10658 10656 10653 10652 10652 10654 10655 10657 10659 10662 10666
10779 10775 10773 10770 10767 10763 10759 10756 10753 10750 10745 10740 10734 10729 10724 10719 10714 10709 10704 10699 10694 10690 10687 10683 10677 10671 10666 10661 10656 10651 10648 10648 10647 10645 10643 10644 10645 10646 10649 10651 10653 10657
10772 10769 10766 10763 10760 10756 10751 10748 10745 10741 10736 10730 10725 10719 10714 10709 10704 10699 10694 10689 10683 10679 10677 10673 10668 10662 10656 10651 10646 10642 10639 10639 10639 10637 10636 10635 10636 10639 10641 10643 10646 10649
10765 10762 10759 10756 10753 10748 10744 10740 10736 10731 10726 10721 10715 10710 10705 10700 10695 10690 10685 10679 10674 10669 10666 10663 10658 10653 10647 10641 10637 10634 10632 10631 10630 10629 10628 10628 10629 10632 10634 10636 10638 10642
10758 10755 10752 10749 10745 10741 10737 10732 10727 10723 10718 10712 10707 10702 10696 10691 10686 10682 10676 10670 10665 10660 10656 10652 10648 10643 10637 10631 10627 10625 10624 10624 10623 10622 10622 10622 10623 10625 10628 10630 10632 10635
10751 10748 10745 10741 10738 10734 10730 10725 10720 10715 10710 10705 10699 10694 10688 10683 10677 10673 10667 10661 10655 10650 10646 10642 10638 10633 10628 10622 10618 10617 10616 10617 10616 10616 10616 10616 10617 10619 10622 10624 10626 10628
10744 10741 10738 10734 10730 10726 10722 10717 10713 10708 10703 10697 10691 10686 10680 10675 10669 10664 10659 10652 10645 10641 10637 10634 10629 10624 10619 10615 10611 10609 10610 10610 10610 10610 10611 10611 10612 10614 10616 10618 10620 10623
10737 10734 10731 10727 10722 10718 10714 10710 10705 10700 10695 10689 10683 10678 10673 10667 10662 10656 10650 10643 10636 10632 10629 10627 10622 10616 10611 10608 10604 10603 10604 10604 10605 10605 10606 10607 10608 10610 10612 10614 10615 10618
10729 10726 10723 10719 10714 10709 10705 10702 10697 10692 10687 10681 10675 10670 10665 10660 10655 10649 10642 10634 10627 10622 10620 10619 10615 10609 10604 10601 10598 10597 10598 10599 10600 10600 10601 10603 10604 10606 10608 10610 10612 10613
10721 10718 10714 10710 10706 10701 10697 10693 10688 10683 10679 10672 10666 10660 10656 10650 10646 10641 10634 10626 10619 10613 10611 10611 10608 10603 10599 10595 10592 10592 10593 10594 10595 10596 10597 10599 10601 10602 10605 10607 10609 10610
10712 10709 10706 10702 10697 10693 10690 10685 10680 10675 10671 10665 10657 10652 10647 10642 10637 10633 10628 10621 10614 10607 10604 10603 10601 10597 10593 10589 10587 10586 10588 10590 10591 10592 10594 10596 10597 10599 10602 10604 10606 10608
10704 10701 10698 10695 10690 10685 10682 10678 10672 10667 10663 10658 10651 10645 10640 10635 10630 10626 10621 10616 10610 10603 10598 10596 10594 10592 10588 10584 10582 10582 10583 10585 10587 10588 10590 10592 10594 10596 10599 10602 10604 10607